IZ2OSD Weather Reports


time (UTC)temp
C
wind
direction
speed
KPH
gust
KPH
rain 1hr
cm
rain 24hr
cm
rain mn
cm
humidity
%
barometer
mb
20260507224319 13 292 0.0 1.6 0.00 0.05 0.00 81 1013.2
20260507223316 13 292 0.0 3.2 0.00 0.05 0.00 81 1013.2
20260507222312 13 292 0.0 3.2 0.00 0.05 0.00 81 1012.9
20260507221308 13 292 1.6 3.2 0.00 0.05 0.00 81 1012.9
20260507220304 13 0.0 0.0 0.00 0.05 0.00 82 1013.0
20260507215256 13 0.0 0.0 0.00 0.05 0.05 83 1013.2
20260507214332 13 0.0 0.0 0.00 0.05 0.05 81 1012.7
20260507213249 14 0.0 0.0 0.00 0.05 0.05 79 1012.6
20260507212247 15 0.0 0.0 0.00 0.05 0.05 78 1012.6
20260507211242 15 0.0 0.0 0.00 0.05 0.05 77 1012.7
20260507210238 15 0.0 0.0 0.00 0.05 0.05 76 1012.8
20260507205315 15 0.0 0.0 0.00 0.05 0.05 75 1012.6
20260507204312 16 0.0 0.0 0.00 0.05 0.05 74 1012.4
20260507203227 16 315 0.0 3.2 0.00 0.05 0.05 73 1012.5
20260507202223 15 0.0 0.0 0.00 0.05 0.05 74 1012.4
20260507201217 15 0.0 0.0 0.00 0.05 0.05 73 1012.0
20260507200213 16 0.0 0.0 0.00 0.05 0.05 73 1012.1
20260507195210 16 0.0 0.0 0.00 0.05 0.05 72 1011.9
20260507194206 16 0.0 0.0 0.00 0.05 0.05 70 1011.9
20260507193157 16 0.0 0.0 0.00 0.05 0.05 68 1011.6
20260507192213 17 0.0 0.0 0.00 0.05 0.05 65 1011.5
20260507191149 17 0.0 0.0 0.00 0.05 0.05 60 1011.3
20260507190147 17 0.0 0.0 0.00 0.05 0.05 60 1011.1
20260507185143 18 0.0 0.0 0.00 0.05 0.05 59 1011.1
20260507184141 18 0.0 0.0 0.00 0.05 0.05 56 1011.0
20260507183135 18 0.0 3.2 0.00 0.05 0.05 54 1011.2
20260507182132 18 0.0 0.0 0.00 0.36 0.05 53 1011.0
20260507181129 19 0.0 1.6 0.00 0.36 0.05 53 1010.8
20260507180126 19 0.0 0.0 0.00 0.36 0.05 51 1010.9
20260507175122 20 315 1.6 3.2 0.00 0.36 0.05 50 1010.8
20260507174119 20 247 0.0 1.6 0.00 0.36 0.05 50 1010.7
20260507173115 20 292 0.0 1.6 0.00 0.36 0.05 50 1010.6
20260507172115 20 292 0.0 4.8 0.00 0.36 0.05 51 1010.5
20260507171110 20 292 0.0 1.6 0.00 0.36 0.05 50 1010.7
20260507165058 20 0.0 0.0 0.00 0.36 0.05 51 1010.5
20260507164114 20 247 3.2 6.4 0.00 0.36 0.05 50 1010.4
20260507163051 21 315 1.6 3.2 0.00 0.36 0.05 50 1010.3
20260507162047 21 292 1.6 3.2 0.00 0.36 0.05 51 1010.3
20260507161043 20 292 4.8 6.4 0.00 0.36 0.05 48 1010.4
20260507160039 20 112 1.6 3.2 0.00 0.36 0.05 48 1010.4
20260507155037 21 315 0.0 3.2 0.00 0.36 0.05 48 1010.5
20260507154032 21 315 1.6 3.2 0.00 0.36 0.05 46 1010.3
20260507153028 20 67 0.0 1.6 0.00 0.36 0.05 47 1010.5
20260507152024 21 315 1.6 3.2 0.00 0.36 0.05 46 1010.6
20260507151021 21 315 1.6 3.2 0.00 0.36 0.05 46 1010.3
20260507150018 21 315 1.6 4.8 0.00 0.38 0.05 46 1010.6
20260507145014 21 292 1.6 3.2 0.00 0.38 0.05 49 1010.5
20260507144011 21 0.0 1.6 0.00 0.53 0.05 47 1010.6
20260507143010 21 0.0 1.6 0.00 0.58 0.05 46 1010.5
20260507142007 21 292 0.0 4.8 0.00 0.58 0.05 47 1010.8
20260507140957 20 0.0 0.0 0.00 0.58 0.05 49 1010.8
20260507135954 21 315 0.0 1.6 0.00 0.58 0.05 49 1010.9
20260507134952 21 292 0.0 3.2 0.00 0.58 0.05 51 1010.9
20260507133946 21 315 4.8 9.7 0.00 0.58 0.05 52 1011.0
20260507133103 21 315 0.0 1.6 0.00 0.58 0.05 53 1010.8
20260507131941 21 292 3.2 4.8 0.00 0.58 0.05 52 1011.0
20260507130938 21 0.0 1.6 0.00 0.58 0.05 52 1011.0
20260507125935 20 315 3.2 6.4 0.00 0.58 0.05 55 1011.4
20260507124932 21 135 4.8 6.4 0.00 0.58 0.05 51 1011.4
20260507123930 20 90 1.6 3.2 0.00 0.58 0.05 54 1011.4
20260507122924 20 292 1.6 3.2 0.00 0.58 0.05 55 1011.6
20260507121920 20 202 3.2 6.4 0.00 0.58 0.05 56 1011.4
20260507120937 20 292 1.6 3.2 0.00 0.58 0.05 56 1011.6
20260507115913 20 315 1.6 3.2 0.00 0.58 0.05 55 1011.3
20260507114909 21 292 1.6 3.2 0.00 0.58 0.05 56 1011.5
20260507113926 20 315 0.0 3.2 0.00 0.58 0.05 55 1011.7
20260507112857 20 292 3.2 4.8 0.00 0.58 0.05 58 1012.0
20260507111853 20 292 1.6 3.2 0.00 0.58 0.05 58 1011.8
20260507110851 20 315 1.6 3.2 0.00 0.58 0.05 59 1011.9
20260507105846 20 292 1.6 3.2 0.00 0.58 0.05 59 1012.0
20260507104904 20 292 1.6 3.2 0.00 0.58 0.05 59 1012.2
20260507103840 20 292 0.0 1.6 0.00 0.58 0.05 60 1012.2
20260507102858 20 292 0.0 3.2 0.00 0.58 0.05 60 1012.2
20260507101833 21 270 1.6 4.8 0.00 0.58 0.05 56 1012.3
20260507100829 20 270 0.0 1.6 0.00 0.58 0.05 60 1012.2
20260507095825 17 112 0.0 4.8 0.00 0.58 0.05 62 1012.3
20260507094820 19 292 1.6 3.2 0.00 0.58 0.05 61 1012.5
20260507093817 18 270 0.0 1.6 0.00 0.58 0.05 64 1012.2
20260507092814 18 292 0.0 1.6 0.00 0.58 0.05 64 1012.4
20260507091811 17 0.0 1.6 0.00 0.58 0.05 66 1012.1
20260507090807 18 270 0.0 3.2 0.00 0.58 0.05 64 1012.4
20260507085805 18 292 1.6 3.2 0.00 0.58 0.05 66 1012.3
20260507084817 17 292 1.6 1.6 0.00 0.71 0.05 65 1012.0
20260507083813 17 315 1.6 4.8 0.00 0.79 0.05 66 1012.1
20260507082810 17 0.0 0.0 0.00 0.86 0.05 63 1012.1
20260507081746 18 292 0.0 1.6 0.00 0.97 0.05 64 1012.3
20260507080803 17 0.0 0.0 0.00 1.19 0.05 66 1012.0
20260507075740 16 292 3.2 3.2 0.00 1.27 0.05 71 1012.1
20260507074757 16 292 3.2 3.2 0.00 1.35 0.05 72 1011.8
20260507073754 15 0.0 1.6 0.00 1.37 0.05 76 1011.7
20260507072729 15 292 1.6 3.2 0.00 1.37 0.05 74 1011.9
20260507071725 15 292 0.0 1.6 0.00 1.37 0.05 77 1011.8
20260507070721 13 0.0 0.0 0.00 1.37 0.05 79 1011.9
20260507065717 13 292 0.0 3.2 0.00 1.37 0.05 82 1011.6
20260507064715 13 292 4.8 4.8 0.00 1.37 0.05 80 1011.5
20260507063710 13 315 3.2 4.8 0.00 1.37 0.05 82 1011.5
20260507062707 12 292 3.2 6.4 0.00 1.37 0.05 84 1011.3
20260507061719 12 315 1.6 3.2 0.00 1.37 0.05 86 1011.3
20260507060738 11 292 3.2 4.8 0.00 1.37 0.05 87 1011.2
20260507055652 12 292 0.0 3.2 0.00 1.37 0.05 87 1011.2
20260507054651 11 315 1.6 3.2 0.00 1.37 0.05 88 1011.1
20260507053645 11 0.0 0.0 0.00 1.37 0.05 88 1010.9
20260507052641 11 315 0.0 1.6 0.00 1.37 0.05 88 1010.8
20260507051637 11 0.0 0.0 0.00 1.37 0.05 88 1010.8
20260507050632 11 0.0 0.0 0.00 1.37 0.05 87 1010.6
20260507045629 11 0.0 0.0 0.00 1.37 0.05 87 1010.7
20260507044627 11 315 0.0 1.6 0.00 1.37 0.05 86 1010.3
20260507043623 11 0.0 1.6 0.00 1.37 0.05 86 1010.2
20260507042700 11 315 3.2 4.8 0.00 1.37 0.05 86 1010.3
20260507041616 11 292 1.6 3.2 0.03 1.40 0.05 86 1010.2
20260507040612 11 315 4.8 6.4 0.03 1.42 0.05 87 1010.1
20260507035629 10 292 8.0 12.9 0.03 1.42 0.05 89 1010.2
20260507034605 11 315 1.6 4.8 0.03 1.42 0.05 89 1010.2
20260507033617 10 315 4.8 6.4 0.03 1.42 0.05 88 1010.1
20260507032613 10 292 4.8 9.7 0.03 1.42 0.05 89 1010.1
20260507031548 10 292 8.0 12.9 0.00 1.42 0.03 90 1010.2
20260507030547 10 292 6.4 9.7 0.00 1.42 0.03 90 1010.2
20260507025542 10 315 6.4 9.7 0.00 1.42 0.03 91 1010.1
20260507024539 10 315 1.6 3.2 0.00 1.42 0.03 92 1010.3
20260507023532 10 315 0.0 3.2 0.00 1.42 0.03 92 1010.2
20260507022530 10 292 1.6 3.2 0.00 1.45 0.03 91 1010.1
20260507021525 10 315 1.6 3.2 0.00 1.45 0.03 90 1010.2
20260507020525 10 315 3.2 4.8 0.00 1.45 0.03 90 1010.4
20260507015519 10 292 0.0 1.6 0.00 1.45 0.03 90 1010.0
20260507014535 11 0.0 0.0 0.03 1.45 0.03 89 1010.1
20260507013512 11 0.0 1.6 0.03 1.45 0.03 88 1010.1
20260507012508 11 292 4.8 6.4 0.03 1.45 0.03 88 1010.0
20260507011507 11 315 4.8 4.8 0.03 1.45 0.03 90 1009.9
20260507011005 11 0.0 0.0 0.03 1.45 0.03 90 1010.1
20260507010018 11 292 3.2 4.8 0.03 1.45 0.03 91 1009.8
20260507004952 11 315 0.0 1.6 0.00 1.42 0.00 90 1009.7
20260507003949 11 0.0 0.0 0.00 1.42 0.00 89 1010.2
20260507002945 11 315 1.6 3.2 0.00 1.42 0.00 89 1009.7
20260507001943 11 292 1.6 4.8 0.00 1.42 0.00 90 1009.8
20260507000939 11 292 1.6 4.8 0.00 1.42 0.00 90 1009.9
20260506235934 11 315 3.2 4.8 0.00 1.42 0.00 91 1009.8
20260506234931 11 292 3.2 4.8 0.00 1.42 0.00 91 1010.0
20260506233928 11 292 4.8 6.4 0.00 1.42 0.00 90 1009.9
20260506232924 11 292 3.2 4.8 0.00 1.42 0.00 91 1009.8
20260506231920 11 292 0.0 1.6 0.00 1.42 0.00 90 1009.7
20260506230937 11 315 3.2 4.8 0.00 1.42 0.00 90 1009.8
20260506225933 11 315 4.8 6.4 0.00 1.42 0.00 90 1009.4
20260506224909 11 292 1.6 3.2 0.00 1.42 0.00 90 1009.5